[[[{"header":{"parameterUnit":"kt","parameterCategory":2,"dx":1,"dy":1,"la1":30.253999710083008,"la2":30.299108505249023,"lo1":-89.0895004272461,"lo2":-89.04439544677734,"nx":28,"ny":28,"refTime":"2022-10-17T21:00:00:Z","depth":0,"parameterNumber":1,"parameterNumberName":"U-component_of_WINDS"},"data":[-1.117,-1.1192,-1.1171,-1.1187,-1.1171,-1.1178,-1.1175,-1.1167,-1.1157,-1.1163,-1.1163,-1.1145,-1.1127,-1.1122,-1.1122,-1.1114,-1.1116,-1.1139,-1.1126,-1.1043,-1.103,-1.1018,-1.1012,-1.1139,-1.1139,-1.1216,-1.1216,-1.1217,-1.1111,-1.1096,-1.1098,-1.1086,-1.1088,-1.1054,-1.1042,-1.1046,-1.1053,-1.104,-1.1039,-1.1043,-1.1044,-1.1017,-1.1014,-1.1025,-1.1009,-1.1026,-1.1026,-1.1024,-1.0934,-1.0927,-1.1038,-1.1038,-1.1038,-1.1038,-1.1038,-1.1038,-1.0999,-1.1013,-1.0994,-1.0996,-1.0984,-1.0976,-1.0986,-1.0963,-1.0965,-1.0959,-1.0934,-1.0943,-1.0926,-1.0912,-1.0903,-1.0909,-1.0888,-1.0899,-1.0903,-1.0907,-1.0915,-1.081,-1.0907,-1.0907,-1.0906,-1.0906,-1.0906,0,-1.0912,-1.0894,-1.0894,-1.0888,-1.0888,-1.0882,-1.0873,-1.0878,-1.0833,-1.0837,-1.084,-1.0839,-1.0836,-1.0837,-1.083,-1.0817,-1.0784,-1.0778,-1.0786,-1.08,-1.0814,-1.0809,-1.0665,-1.0776,-1.0775,-1.0774,-1.0773,-1.0773,-1.0799,-1.0817,-1.0787,-1.079,-1.0779,-1.0785,-1.0784,-1.0742,-1.0744,-1.0726,-1.0741,-1.0741,-1.0739,-1.0748,-1.0722,-1.072,-1.0704,-1.0749,-1.0704,-1.0716,-1.0708,-1.0708,-1.071,-1.076,-1.0761,-1.0763,-1.0764,0,-1.0738,-1.0704,-1.0725,-1.0693,-1.0686,-1.0707,-1.068,-1.0691,-1.0667,-1.0681,-1.0681,-1.0645,-1.0649,-1.0615,-1.0613,-1.0595,-1.0631,-1.0614,-1.0637,-1.0632,-1.0671,-1.0668,-1.0797,-1.0812,-1.0678,-1.0679,-1.068,0,-1.063,-1.0655,-1.0603,-1.0617,-1.0643,-1.0601,-1.0628,-1.061,-1.0594,-1.0604,-1.056,-1.057,-1.0524,-1.053,-1.0504,-1.0526,-1.0525,-1.0514,-1.0507,-1.052,-1.0521,-1.0522,-1.0517,-1.0489,-1.0488,-1.0487,-1.0487,0,-1.054,-1.0541,-1.0562,-1.0557,-1.0526,-1.0537,-1.0525,-1.0507,-1.0506,-1.05,-1.05,-1.0495,-1.0494,-1.0491,-1.0458,-1.0429,-1.0484,-1.0437,-1.0473,-1.0474,-1.0489,-1.0489,-1.0609,-1.0486,-1.0486,-1.0486,-1.0485,0,-1.0449,-1.0443,-1.0479,-1.0452,-1.0454,-1.0468,-1.0461,-1.0465,-1.0449,-1.0433,-1.0428,-1.0395,-1.0411,-1.0367,-1.0388,-1.036,-1.0361,-1.035,-1.0352,-1.0354,-1.0307,-1.0382,-1.0497,-1.0509,-1.0353,-1.0351,-1.035,0,-1.0356,-1.0383,-1.0347,-1.0382,-1.039,-1.034,-1.0355,-1.0342,-1.0322,-1.0326,-1.0304,-1.0309,-1.0269,-1.0266,-1.0281,-1.0259,-1.0296,-1.0253,-1.0262,-1.0263,-1.027,-1.0375,-1.0402,-1.0475,-1.0336,-1.0337,-1.0338,0,-1.028,-1.0242,-1.025,-1.0243,-1.0219,-1.0225,-1.0242,-1.0237,-1.0242,-1.0232,-1.0246,-1.0251,-1.0222,-1.0218,-1.019,-1.0207,-1.027,-1.0174,-1.0173,-1.0194,-1.0325,-1.035,-1.0363,-1.0248,-1.0249,-1.0251,-1.0327,0,-1.0153,-1.0162,-1.0183,-1.0168,-1.0167,-1.0187,-1.015,-1.0154,-1.0128,-1.0107,-1.0126,-1.0106,-1.0103,-1.0106,-1.0081,-1.0131,-1.0118,-1.0086,-1.0043,-1.0111,-1.0136,-1.0145,-1.001,-1.0008,-1.0007,-1.0006,0,0,-1.0074,-1.0086,-1.0046,-1.006,-1.0058,-1.0005,-1.003,-1.0021,-1.0004,-1.0004,-0.9979,-0.9985,-0.997,-0.9998,-1.0016,-1.0014,-1.002,-0.9998,-1.0079,-1.0087,-1.0094,-1.0121,-1.0132,-1.0004,-1.0003,-1.0003,-1.0002,0,-1.0021,-1.0005,-1.0029,-1.0018,-1.0,-0.9976,-0.9982,-0.9955,-0.9942,-0.996,-0.9918,-0.9925,-0.9931,-0.9922,-0.9918,-0.9993,-0.9962,-0.9994,-1.0047,-1.0067,-1.0077,-1.0086,-1.0114,-1.0124,-0.9999,-0.9999,-1.0,0,-0.9941,-0.9921,-0.9928,-0.9918,-0.9906,-0.9915,-0.986,-0.9872,-0.9878,-0.9822,-0.9841,-0.9825,-0.981,-0.984,-0.9852,-0.983,-0.9911,-0.9878,-0.9885,-0.9886,-0.9904,-0.9916,-0.9926,-0.9787,-0.9786,-0.9785,0,0,-0.99,-0.9907,-0.9873,-0.9904,-0.9899,-0.9863,-0.9865,-0.9838,-0.9825,-0.982,-0.98,-0.9788,-0.9791,-0.9794,-0.9795,-0.9832,-0.9827,-0.9853,-0.9863,-0.9872,-0.9878,-0.9897,-0.9909,-0.9783,-0.9783,-0.9783,0,0,-0.9881,-0.9842,-0.9818,-0.9848,-0.9836,-0.9805,-0.9826,-0.9795,-0.9792,-0.9786,-0.9743,-0.9739,-0.9766,-0.9752,-0.9727,-0.9779,-0.9737,-0.9742,-0.9787,-0.9799,-0.9809,-0.9813,-0.9669,0,0,0,0,0,-0.9807,-0.9846,-0.9825,-0.9824,-0.9812,-0.9817,-0.9815,-0.9781,-0.9751,-0.9768,-0.9746,-0.9712,-0.973,-0.9706,-0.9707,-0.9736,-0.9754,-0.976,-0.9764,-0.9831,-0.9844,-0.9855,0,0,0,0,0,0,-0.9807,-0.9807,-0.9824,-0.9795,-0.9791,-0.9815,-0.9758,-0.975,-0.9749,-0.9742,-0.9717,-0.9711,-0.9682,-0.9703,-0.9704,-0.9733,-0.9668,-0.9756,-0.9761,-0.9765,-0.9836,-0.9846,-0.9856,0,0,0,0,0,-0.9806,-0.9806,-0.9795,-0.9794,-0.9791,-0.9754,-0.9757,-0.9749,-0.9748,-0.9714,-0.9707,-0.9721,-0.9684,-0.9683,-0.9704,-0.9734,-0.9667,-0.9668,-0.9759,-0.9763,-0.9766,-0.9841,0,0,0,0,0,0,-0.9806,-0.98,-0.9793,-0.9791,-0.9776,-0.9752,-0.9747,-0.9749,-0.9719,-0.9712,-0.9716,-0.9711,-0.9686,-0.9684,-0.9684,-0.9736,-0.9666,-0.9667,-0.9667,-0.9762,-0.9765,-0.9767,0,0,0,0,0,0,-0.9799,-0.9798,-0.9792,-0.9772,-0.9767,-0.975,-0.9746,-0.9759,-0.9719,-0.9722,-0.9717,-0.9714,-0.9687,-0.9686,-0.9685,-0.9706,-0.9666,-0.9666,-0.9667,-0.9667,-0.9764,-0.9766,0,0,0,0,0,0,-0.9798,-0.9797,-0.9772,-0.9769,-0.9764,-0.9738,-0.9761,-0.975,-0.9702,-0.9724,-0.9696,-0.9694,-0.969,-0.9688,-0.9686,-0.9708,-0.9707,-0.9666,-0.9666,-0.9667,-0.9667,0,0,0,0,0,0,0,-0.9797,-0.9813,-0.9806,-0.9766,-0.9762,-0.9771,-0.9771,-0.977,-0.9701,-0.9699,-0.9697,-0.9695,-0.9663,-0.9663,-0.9664,-0.971,0,0,-0.9666,-0.9666,0,0,0,0,0,0,0,0,-0.9813,-0.9813,-0.9806,-0.9805,-0.9805,-0.9771,-0.9771,-0.977,-0.9701,-0.9699,-0.9697,-0.9696,-0.9663,-0.9663,-0.9664,0,0,0,0,0,0,0,0,0,0,0,0,0,0,0,-0.9806,-0.9805,0,-0.9771,-0.9771,-0.977,-0.9701,-0.9699,-0.9698,-0.9696,-0.9663,-0.9663,-0.9664,0,0,0,0,0,0,0,0,0,0,0,0,0,0,0,0,0,0,0,0,0,0,0,0,0,0,0,0,0,0,0,0,0,0,0,0,0,0,0,0,0,0,0,0,0,0,0,0,0,0,0,0,0,0,0,0,0,0,0,0,0,0,0,0,0,0,0,0,0]}],[{"header":{"parameterUnit":"kt","parameterCategory":2,"dx":1,"dy":1,"la1":30.253999710083008,"la2":30.299108505249023,"lo1":-89.0895004272461,"lo2":-89.04439544677734,"nx":28,"ny":28,"refTime":"2022-10-17T21:00:00:Z","depth":0,"parameterNumber":2,"parameterNumberName":"V-component_of_WINDS"},"data":[-7.7219,-7.732,-7.7326,-7.7443,-7.7467,-7.7547,-7.7577,-7.7616,-7.7648,-7.7743,-7.7798,-7.781,-7.7842,-7.7907,-7.7965,-7.7969,-7.7995,-7.8028,-7.8028,-7.7874,-7.7853,-7.7833,-7.7811,-7.8033,-7.8033,-7.8188,-7.8189,-7.819,-7.7111,-7.7137,-7.72,-7.7264,-7.7318,-7.7289,-7.7336,-7.7383,-7.7455,-7.7493,-7.7547,-7.7629,-7.7694,-7.7713,-7.7775,-7.7821,-7.7811,-7.7838,-7.7836,-7.7842,-7.7677,-7.7654,-7.7846,-7.7846,-7.7846,-7.7846,-7.7846,-7.7846,-7.6917,-7.6976,-7.7018,-7.7086,-7.7118,-7.716,-7.7217,-7.7232,-7.7292,-7.7359,-7.7349,-7.7429,-7.7467,-7.7541,-7.7566,-7.7628,-7.7597,-7.7628,-7.7636,-7.7645,-7.7656,-7.744,-7.7637,-7.7637,-7.7636,-7.7636,-7.7635,0,-7.6776,-7.6777,-7.6836,-7.6898,-7.6946,-7.6993,-7.7036,-7.7071,-7.7068,-7.7117,-7.7188,-7.7229,-7.7308,-7.7374,-7.7431,-7.7451,-7.7424,-7.742,-7.7442,-7.745,-7.7452,-7.7456,-7.7191,-7.7414,-7.7412,-7.7411,-7.741,-7.7409,-7.6583,-7.665,-7.6694,-7.6735,-7.676,-7.6825,-7.6864,-7.6857,-7.6899,-7.6949,-7.7,-7.7066,-7.7118,-7.7227,-7.7241,-7.7299,-7.7287,-7.7373,-7.7295,-7.7301,-7.7293,-7.729,-7.7298,-7.7389,-7.7392,-7.7394,-7.7395,0,-7.6475,-7.6481,-7.6585,-7.662,-7.6631,-7.6701,-7.673,-7.6787,-7.6794,-7.6873,-7.6891,-7.6901,-7.6968,-7.6967,-7.7042,-7.704,-7.7157,-7.7141,-7.7145,-7.7143,-7.7223,-7.7217,-7.7474,-7.7509,-7.7275,-7.7277,-7.7279,0,-7.6314,-7.6401,-7.6404,-7.6464,-7.6561,-7.6551,-7.6647,-7.6661,-7.6693,-7.6755,-7.6724,-7.6783,-7.6771,-7.683,-7.6825,-7.692,-7.6932,-7.6937,-7.6936,-7.6942,-7.6942,-7.6965,-7.6956,-7.6924,-7.6923,-7.6922,-7.6921,0,-7.6146,-7.6247,-7.6345,-7.6369,-7.6413,-7.6459,-7.6479,-7.6513,-7.655,-7.6598,-7.6622,-7.6677,-7.6708,-7.6751,-7.6746,-7.6694,-7.686,-7.6787,-7.6865,-7.6866,-7.6903,-7.6902,-7.7128,-7.6919,-7.6919,-7.6918,-7.6918,0,-7.6017,-7.6067,-7.6206,-7.6243,-7.627,-7.6332,-7.6388,-7.6441,-7.6478,-7.648,-7.6517,-7.6496,-7.6575,-7.6504,-7.6614,-7.6549,-7.6581,-7.6591,-7.6597,-7.6606,-7.6527,-7.6659,-7.6872,-7.6896,-7.6613,-7.661,-7.6608,0,-7.5826,-7.5966,-7.5958,-7.6089,-7.6154,-7.6117,-7.6186,-7.6219,-7.6228,-7.6283,-7.629,-7.6352,-7.6298,-7.6317,-7.6371,-7.6382,-7.6467,-7.637,-7.6451,-7.6454,-7.6447,-7.6641,-7.6675,-7.6825,-7.6575,-7.6578,-7.6581,0,-7.5678,-7.5731,-7.5755,-7.5782,-7.5825,-7.5877,-7.5955,-7.6015,-7.6053,-7.6091,-7.6158,-7.6242,-7.6206,-7.6237,-7.6224,-7.6281,-7.6409,-7.6234,-7.6235,-7.6269,-7.6557,-7.6589,-7.6614,-7.6388,-7.6392,-7.6395,-7.6555,0,-7.5489,-7.5558,-7.5621,-7.5679,-7.5719,-7.5798,-7.5798,-7.584,-7.5825,-7.5832,-7.5926,-7.595,-7.6008,-7.6034,-7.6018,-7.6148,-7.6126,-7.6086,-7.6018,-7.6144,-7.6197,-7.6218,-7.594,-7.5938,-7.5936,-7.5934,0,0,-7.5307,-7.5405,-7.5392,-7.5468,-7.5501,-7.546,-7.5546,-7.5572,-7.5627,-7.5651,-7.5612,-7.5735,-7.5756,-7.5871,-7.591,-7.5932,-7.5955,-7.591,-7.6083,-7.61,-7.6115,-7.6172,-7.6194,-7.5931,-7.5931,-7.593,-7.5929,0,-7.5238,-7.5262,-7.5346,-7.5374,-7.5415,-7.5417,-7.5437,-7.5469,-7.5477,-7.5568,-7.5532,-7.5587,-7.5683,-7.5712,-7.5739,-7.5896,-7.5866,-7.5913,-7.6001,-7.6066,-7.6085,-7.6101,-7.6161,-7.6182,-7.5925,-7.5926,-7.5926,0,-7.5095,-7.512,-7.516,-7.5231,-7.5256,-7.5322,-7.5251,-7.5321,-7.5369,-7.5318,-7.5409,-7.5421,-7.5457,-7.5564,-7.5612,-7.5578,-7.5785,-7.5717,-7.5727,-7.5733,-7.5796,-7.5819,-7.5839,-7.5573,-7.5572,-7.5571,0,0,-7.5036,-7.5098,-7.512,-7.5216,-7.5235,-7.5238,-7.5272,-7.526,-7.5294,-7.5308,-7.5323,-7.5357,-7.5413,-7.5449,-7.5501,-7.5618,-7.5626,-7.5673,-7.569,-7.5704,-7.5717,-7.5783,-7.5806,-7.5566,-7.5566,-7.5566,0,0,-7.5007,-7.5037,-7.5016,-7.5127,-7.5162,-7.5188,-7.5247,-7.5222,-7.5268,-7.5259,-7.5241,-7.5248,-7.5348,-7.5361,-7.5301,-7.5477,-7.5409,-7.5423,-7.5466,-7.5486,-7.5503,-7.5499,-7.523,0,0,0,0,0,-7.4936,-7.5033,-7.5015,-7.5033,-7.5121,-7.5199,-7.521,-7.5199,-7.5153,-7.5199,-7.5208,-7.5172,-7.5326,-7.5272,-7.529,-7.5357,-7.5508,-7.5518,-7.5528,-7.561,-7.5632,-7.5651,0,0,0,0,0,0,-7.4943,-7.4965,-7.5012,-7.5043,-7.5063,-7.5196,-7.5115,-7.5114,-7.5147,-7.5139,-7.5172,-7.5173,-7.5163,-7.5262,-7.5278,-7.5343,-7.5225,-7.5512,-7.5521,-7.5529,-7.5618,-7.5636,-7.5651,0,0,0,0,0,-7.4949,-7.4967,-7.5111,-7.5041,-7.5059,-7.5067,-7.5111,-7.511,-7.5135,-7.5148,-7.5149,-7.5123,-7.5166,-7.5178,-7.5272,-7.5336,-7.5213,-7.5219,-7.5518,-7.5525,-7.5531,-7.5626,0,0,0,0,0,0,-7.4953,-7.4966,-7.5114,-7.5119,-7.5004,-7.5059,-7.5068,-7.5106,-7.5141,-7.5143,-7.5099,-7.5092,-7.5168,-7.5177,-7.5187,-7.5334,-7.5204,-7.521,-7.5214,-7.5523,-7.5529,-7.5533,0,0,0,0,0,0,-7.4956,-7.497,-7.5117,-7.507,-7.5069,-7.5052,-7.506,-7.5136,-7.5142,-7.5089,-7.5085,-7.5095,-7.5153,-7.5178,-7.5185,-7.5305,-7.5197,-7.5203,-7.5207,-7.521,-7.5528,-7.5532,0,0,0,0,0,0,-7.4962,-7.4974,-7.5068,-7.5068,-7.5067,-7.5119,-7.5119,-7.521,-7.5104,-7.5088,-7.5094,-7.5089,-7.5154,-7.5161,-7.5184,-7.53,-7.5304,-7.5197,-7.5201,-7.5204,-7.5206,0,0,0,0,0,0,0,-7.4966,-7.4888,-7.5087,-7.5066,-7.5065,-7.5163,-7.5164,-7.5166,-7.5103,-7.5099,-7.5095,-7.5091,-7.5164,-7.517,-7.5177,-7.5297,0,0,-7.5197,-7.52,0,0,0,0,0,0,0,0,-7.4882,-7.4887,-7.5087,-7.5088,-7.5089,-7.5163,-7.5164,-7.5165,-7.5102,-7.5099,-7.5096,-7.5093,-7.5165,-7.5171,-7.5176,0,0,0,0,0,0,0,0,0,0,0,0,0,0,0,-7.5087,-7.5088,0,-7.5164,-7.5164,-7.5165,-7.5102,-7.5099,-7.5096,-7.5094,-7.5167,-7.5171,-7.5176,0,0,0,0,0,0,0,0,0,0,0,0,0,0,0,0,0,0,0,0,0,0,0,0,0,0,0,0,0,0,0,0,0,0,0,0,0,0,0,0,0,0,0,0,0,0,0,0,0,0,0,0,0,0,0,0,0,0,0,0,0,0,0,0,0,0,0,0,0]}]]]